Regional Weather Roundup
Issued by NWS Columbia, SC

Home | Current Version | Previous Version | Text Only | Print | Product List | Glossary On
Versions: 1 2 3 4 5 6 7 8 9 10 11 12 13 14 15 16 17 18 19 20 21 22 23 24 25 26 27 28 29 30 31 32 33 34 35 36 37 38 39 40 41 42 43 44 45 46 47 48 49 50
000
ASUS42 KCAE 230510
RWRCAE
REGIONAL WEATHER ROUNDUP
NATIONAL WEATHER SERVICE COLUMBIA SC
100 AM EDT WED AUG 23 2017

NOTE: "FAIR" INDICATES FEW OR NO CLOUDS BELOW 12,000 FEET WITH NO
SIGNIFICANT WEATHER AND/OR OBSTRUCTIONS TO VISIBILITY.

NOT ALL STATIONS ARE QUALITY CONTROLLED BY THE NATIONAL
WEATHER SERVICE. USE DATA WITH CAUTION...ESPECIALLY
DEWPOINT OBSERVATIONS.

SCZ001>056-GAZ040-063>065-077-230600-
...UPSTATE SOUTH CAROLINA...

CITY           SKY/WX    TMP DP  RH WIND       PRES   REMARKS
ANDERSON       PTCLDY    76  73  91 CALM      29.98F
LIBERTY        PTCLDY    73  71  96 CALM      29.98F
SPARTANBURG    CLEAR     73  70  88 CALM      29.97S
CLEMSON        CLEAR     78  75  90 SW3       29.99F
GREENVILLE     CLEAR     79  72  79 SW6       29.99F
GREENWOOD      CLEAR     76  73  91 SW7       30.00R
GREER          CLEAR     78  73  84 SW7       29.97F
ROCK HILL      CLEAR     76  74  93 SW8       29.97S
CHESTER        CLEAR     73  70  88 SW3       29.97S
LAURENS        CLEAR     77  72  83 SW6       29.98S


...CENTRAL SOUTH CAROLINA...

CITY           SKY/WX    TMP DP  RH WIND       PRES   REMARKS
COLUMBIA APT   PTCLDY    80  72  76 S6        29.95F
COLUMBIA OWENS CLEAR     79  74  84 S5        29.97F
MCENTIRE ANGB  CLEAR     78  74  88 S6        29.97F
ORANGEBURG     CLEAR     76  74  93 S6        29.99S
SUMTER SHAW    CLEAR     78  74  86 SW8       29.94F
NEWBERRY       CLEAR     75  72  88 SW3       30.00S
AIKEN          FAIR      73  72  94 S6        30.02S
BARNWELL       FAIR      79  77  94 SW6       29.99S
MANNING        FAIR      79  70  73 CALM      29.98S
CAMDEN         FAIR      79  73  83 S6        29.96F
LANCASTER      CLEAR     75  75 100 SW3       29.96S
WINNSBORO      CLEAR     77  72  83 SW6       29.97S


...EASTERN AND COASTAL SOUTH CAROLINA...

CITY           SKY/WX    TMP DP  RH WIND       PRES   REMARKS
MYRTLE BEACH   CLEAR     79  74  84 SW6       29.98F
N MYRTLE BCH   CLEAR     80  74  81 SW12      29.97F
CONWAY         FAIR      73  73 100 S5        29.97F
MARION         FAIR      75  73  94 SW5       29.97S
HARTSVILLE     FAIR      73  73 100 S5        29.96F
FLORENCE       CLEAR     77  76  96 SW6       29.97S
DARLINGTON     CLEAR     78  75  90 S6        29.96F
CHARLESTON APT CLEAR     77  76  96 SW6       29.98F
MOUNT PLEASANT FAIR      79  75  89 CALM      29.99S
WALTERBORO     CLEAR     75  73  94 SW3       30.00S
BEAUFORT       CLEAR     79  78  97 SW3       29.99F


...EASTERN GEORGIA...

CITY           SKY/WX    TMP DP  RH WIND       PRES   REMARKS
AUGUSTA BUSH F CLEAR     77  74  90 CALM      29.98F
AUGUSTA DANIEL CLEAR     78  72  81 S3        30.00S
THOMSON        CLEAR     74  73  96 CALM      30.04R
WASHINGTON     FAIR     N/A N/A N/A SW3       30.00S
CLAXTON        FAIR      77  75  94 CALM      30.00S
SYLVANIA         N/A     76  76 100 CALM      30.01S
STATESBORO     CLEAR     78  72  81 CALM      30.00S
SAVANNAH       CLEAR     77  75  93 CALM      30.01R


...SOUTHERN NORTH CAROLINA...

CITY           SKY/WX    TMP DP  RH WIND       PRES   REMARKS
CHARLOTTE      PTCLDY    78  74  87 SW9       29.96S
MONROE         CLEAR     76  71  85 SW5       29.95F
WADESBORO      CLEAR     78  71  79 S3        29.93F
ROCKINGHAM     CLEAR     77  75  93 S6        29.95F
RUTHERFORDTON  CLEAR     73  73 100 S3        29.98S
ASHEVILLE      CLEAR     69  67  93 SW3       30.05F

$$



USA.gov is the U.S. government's official web portal to all federal, state and local government web resources and services.